Time,TemperatureF,DewpointF,PressureIn,WindDirection,WindDirectionDegrees,WindSpeedMPH,WindSpeedGustMPH,Humidity,HourlyPrecipIn,Conditions,Clouds,dailyrainin,SoftwareType,DateUTC
2013-02-24 00:14:00,27.7,26.0,29.88,WNW,296,0.0,2.0,93,0.00,,,0.00,weatherlink.com 1.10,2013-02-24 05:14:00,
2013-02-24 00:29:00,27.9,26.0,29.89,WNW,296,0.0,0.0,93,0.00,,,0.00,weatherlink.com 1.10,2013-02-24 05:29:00,
2013-02-24 00:44:00,28.0,26.0,29.89,WNW,296,0.0,1.0,93,0.00,,,0.00,weatherlink.com 1.10,2013-02-24 05:44:00,
2013-02-24 00:59:00,27.9,26.0,29.90,WNW,296,0.0,0.0,93,0.00,,,0.00,weatherlink.com 1.10,2013-02-24 05:59:00,
2013-02-24 01:14:00,27.8,26.0,29.90,WNW,296,0.0,0.0,93,0.00,,,0.00,weatherlink.com 1.10,2013-02-24 06:14:00,
2013-02-24 01:29:00,27.5,26.0,29.91,WNW,296,0.0,0.0,92,0.00,,,0.00,weatherlink.com 1.10,2013-02-24 06:29:00,
2013-02-24 01:44:00,27.1,25.0,29.92,WNW,296,0.0,0.0,93,0.00,,,0.00,weatherlink.com 1.10,2013-02-24 06:44:00,
2013-02-24 01:59:00,26.8,25.0,29.92,WNW,296,0.0,0.0,93,0.00,,,0.00,weatherlink.com 1.10,2013-02-24 06:59:00,
2013-02-24 02:14:00,26.4,25.0,29.92,WNW,296,0.0,0.0,93,0.00,,,0.00,weatherlink.com 1.10,2013-02-24 07:14:00,
2013-02-24 02:29:00,26.1,24.0,29.92,WNW,296,0.0,0.0,93,0.00,,,0.00,weatherlink.com 1.10,2013-02-24 07:29:00,
2013-02-24 02:44:00,25.8,24.0,29.92,WNW,296,0.0,0.0,93,0.00,,,0.00,weatherlink.com 1.10,2013-02-24 07:44:00,
2013-02-24 02:59:00,25.8,24.0,29.91,WNW,296,0.0,0.0,94,0.00,,,0.00,weatherlink.com 1.10,2013-02-24 07:59:00,
2013-02-24 03:14:00,25.6,24.0,29.91,WNW,296,0.0,0.0,94,0.00,,,0.00,weatherlink.com 1.10,2013-02-24 08:14:00,
2013-02-24 03:29:00,25.4,24.0,29.91,WNW,296,0.0,0.0,94,0.00,,,0.00,weatherlink.com 1.10,2013-02-24 08:29:00,
2013-02-24 03:44:00,25.0,24.0,29.91,WNW,296,0.0,0.0,94,0.00,,,0.00,weatherlink.com 1.10,2013-02-24 08:44:00,
2013-02-24 03:59:00,24.7,23.0,29.92,WNW,296,0.0,0.0,94,0.00,,,0.00,weatherlink.com 1.10,2013-02-24 08:59:00,
2013-02-24 04:14:00,24.6,23.0,29.92,WNW,296,0.0,0.0,94,0.00,,,0.00,weatherlink.com 1.10,2013-02-24 09:14:00,
2013-02-24 04:29:00,24.9,24.0,29.92,WNW,296,0.0,0.0,95,0.00,,,0.00,weatherlink.com 1.10,2013-02-24 09:29:00,
2013-02-24 04:44:00,25.4,24.0,29.93,WNW,296,0.0,0.0,95,0.00,,,0.00,weatherlink.com 1.10,2013-02-24 09:44:00,
2013-02-24 04:59:00,26.1,25.0,29.93,WNW,296,0.0,0.0,95,0.00,,,0.00,weatherlink.com 1.10,2013-02-24 09:59:00,
2013-02-24 05:14:00,26.5,25.0,29.93,WNW,296,0.0,0.0,95,0.00,,,0.00,weatherlink.com 1.10,2013-02-24 10:14:00,
2013-02-24 05:29:00,27.0,26.0,29.94,WNW,296,0.0,0.0,95,0.00,,,0.00,weatherlink.com 1.10,2013-02-24 10:29:00,
2013-02-24 05:44:00,27.2,26.0,29.94,WNW,296,0.0,0.0,95,0.00,,,0.00,weatherlink.com 1.10,2013-02-24 10:44:00,
2013-02-24 05:59:00,27.4,26.0,29.94,WNW,296,0.0,0.0,94,0.00,,,0.00,weatherlink.com 1.10,2013-02-24 10:59:00,
2013-02-24 06:14:00,27.7,26.0,29.94,WNW,296,0.0,1.0,93,0.00,,,0.00,weatherlink.com 1.10,2013-02-24 11:14:00,
2013-02-24 06:29:00,27.9,26.0,29.94,WNW,296,0.0,0.0,93,0.00,,,0.00,weatherlink.com 1.10,2013-02-24 11:29:00,
2013-02-24 06:44:00,28.1,26.0,29.95,WNW,296,0.0,2.0,91,0.00,,,0.00,weatherlink.com 1.10,2013-02-24 11:44:00,
2013-02-24 06:59:00,28.7,26.0,29.95,West,268,0.0,3.0,88,0.00,,,0.00,weatherlink.com 1.10,2013-02-24 11:59:00,
2013-02-24 07:15:00,29.0,26.0,29.95,WSW,252,0.0,2.0,87,0.00,,,0.00,weatherlink.com 1.10,2013-02-24 12:15:00,
2013-02-24 07:30:00,29.2,25.0,29.96,West,278,3.0,4.0,85,0.00,,,0.00,weatherlink.com 1.10,2013-02-24 12:30:00,
2013-02-24 07:45:00,29.3,25.0,29.97,WNW,284,0.0,3.0,84,0.00,,,0.00,weatherlink.com 1.10,2013-02-24 12:45:00,
2013-02-24 08:00:00,29.5,24.0,29.97,West,267,0.0,4.0,81,0.00,,,0.00,weatherlink.com 1.10,2013-02-24 13:00:00,
2013-02-24 08:15:00,29.5,24.0,29.97,WNW,288,2.0,5.0,81,0.00,,,0.00,weatherlink.com 1.10,2013-02-24 13:15:00,
2013-02-24 08:30:00,29.6,25.0,29.98,NNW,347,2.0,8.0,82,0.00,,,0.00,weatherlink.com 1.10,2013-02-24 13:30:00,
2013-02-24 08:45:00,29.5,24.0,29.98,West,270,3.0,8.0,81,0.00,,,0.00,weatherlink.com 1.10,2013-02-24 13:45:00,
2013-02-24 09:00:00,29.5,24.0,29.98,West,267,4.0,6.0,81,0.00,,,0.00,weatherlink.com 1.10,2013-02-24 14:00:00,
2013-02-24 09:15:00,29.4,24.0,29.98,West,277,2.0,8.0,81,0.00,,,0.00,weatherlink.com 1.10,2013-02-24 14:15:00,
2013-02-24 09:30:00,29.5,24.0,29.99,WSW,257,1.0,5.0,81,0.00,,,0.00,weatherlink.com 1.10,2013-02-24 14:30:00,
2013-02-24 09:45:00,29.4,24.0,29.99,WNW,290,2.0,6.0,81,0.00,,,0.00,weatherlink.com 1.10,2013-02-24 14:45:00,
2013-02-24 10:00:00,29.3,24.0,30.00,WSW,251,3.0,5.0,82,0.00,,,0.00,weatherlink.com 1.10,2013-02-24 15:00:00,
2013-02-24 10:15:00,29.4,24.0,29.99,WNW,290,7.0,8.0,81,0.00,,,0.00,weatherlink.com 1.10,2013-02-24 15:15:00,
2013-02-24 10:30:00,29.2,24.0,30.00,West,276,1.0,8.0,81,0.00,,,0.00,weatherlink.com 1.10,2013-02-24 15:30:00,
2013-02-24 10:45:00,29.2,23.0,30.00,West,268,4.0,10.0,79,0.00,,,0.00,weatherlink.com 1.10,2013-02-24 15:45:00,
2013-02-24 11:00:00,29.4,22.0,30.00,WSW,238,2.0,10.0,75,0.00,,,0.00,weatherlink.com 1.10,2013-02-24 16:00:00,
2013-02-24 11:15:00,29.9,22.0,30.01,West,281,3.0,9.0,72,0.00,,,0.00,weatherlink.com 1.10,2013-02-24 16:15:00,
2013-02-24 11:30:00,30.1,21.0,30.02,West,267,3.0,11.0,70,0.00,,,0.00,weatherlink.com 1.10,2013-02-24 16:30:00,
2013-02-24 11:45:00,29.8,22.0,30.02,NNE,24,5.0,11.0,73,0.00,,,0.00,weatherlink.com 1.10,2013-02-24 16:45:00,
2013-02-24 12:00:00,29.7,22.0,30.02,WNW,302,4.0,10.0,73,0.00,,,0.00,weatherlink.com 1.10,2013-02-24 17:00:00,
2013-02-24 12:15:00,29.4,22.0,30.02,NW,322,3.0,16.0,74,0.00,,,0.00,weatherlink.com 1.10,2013-02-24 17:15:00,
2013-02-24 12:30:00,29.2,23.0,30.02,WNW,289,2.0,12.0,76,0.00,,,0.00,weatherlink.com 1.10,2013-02-24 17:30:00,
2013-02-24 12:45:00,29.0,22.0,30.03,WNW,296,3.0,9.0,76,0.00,,,0.00,weatherlink.com 1.10,2013-02-24 17:45:00,
2013-02-24 13:00:00,29.1,23.0,30.03,NW,311,0.0,9.0,77,0.00,,,0.00,weatherlink.com 1.10,2013-02-24 18:00:00,
2013-02-24 13:15:00,29.1,21.0,30.03,West,260,8.0,13.0,73,0.00,,,0.00,weatherlink.com 1.10,2013-02-24 18:15:00,
2013-02-24 13:30:00,29.6,22.0,30.03,North,355,2.0,13.0,72,0.00,,,0.00,weatherlink.com 1.10,2013-02-24 18:30:00,
2013-02-24 13:45:00,30.6,22.0,30.03,West,259,9.0,12.0,70,0.00,,,0.00,weatherlink.com 1.10,2013-02-24 18:45:00,
2013-02-24 14:00:00,30.4,21.0,30.03,West,275,6.0,12.0,69,0.00,,,0.00,weatherlink.com 1.10,2013-02-24 19:00:00,
2013-02-24 14:15:00,30.1,21.0,30.04,West,262,3.0,9.0,69,0.00,,,0.00,weatherlink.com 1.10,2013-02-24 19:15:00,
2013-02-24 14:30:00,30.0,21.0,30.04,WSW,246,8.0,14.0,69,0.00,,,0.00,weatherlink.com 1.10,2013-02-24 19:30:00,
2013-02-24 14:45:00,30.0,21.0,30.05,West,265,1.0,9.0,69,0.00,,,0.00,weatherlink.com 1.10,2013-02-24 19:45:00,
2013-02-24 15:00:00,30.5,21.0,30.05,West,265,4.0,8.0,67,0.00,,,0.00,weatherlink.com 1.10,2013-02-24 20:00:00,
2013-02-24 15:15:00,30.3,22.0,30.06,WSW,254,2.0,11.0,71,0.00,,,0.00,weatherlink.com 1.10,2013-02-24 20:15:00,
2013-02-24 15:30:00,30.4,21.0,30.06,West,277,4.0,15.0,69,0.00,,,0.00,weatherlink.com 1.10,2013-02-24 20:30:00,
2013-02-24 15:45:00,30.8,22.0,30.07,WSW,244,5.0,8.0,70,0.00,,,0.00,weatherlink.com 1.10,2013-02-24 20:45:00,
2013-02-24 16:01:00,30.6,22.0,30.07,West,267,11.0,11.0,71,0.00,,,0.00,weatherlink.com 1.10,2013-02-24 21:01:00,
2013-02-24 16:16:00,30.5,23.0,30.08,NW,309,4.0,11.0,73,0.00,,,0.00,weatherlink.com 1.10,2013-02-24 21:16:00,
2013-02-24 16:31:00,30.2,23.0,30.08,WNW,293,3.0,10.0,73,0.00,,,0.00,weatherlink.com 1.10,2013-02-24 21:31:00,
2013-02-24 16:46:00,30.2,22.0,30.08,West,267,0.0,6.0,72,0.00,,,0.00,weatherlink.com 1.10,2013-02-24 21:46:00,
2013-02-24 17:01:00,30.5,22.0,30.09,WNW,286,2.0,6.0,70,0.00,,,0.00,weatherlink.com 1.10,2013-02-24 22:01:00,
2013-02-24 17:16:00,30.6,22.0,30.09,WNW,290,0.0,7.0,70,0.00,,,0.00,weatherlink.com 1.10,2013-02-24 22:16:00,
2013-02-24 17:31:00,30.7,22.0,30.10,WNW,292,5.0,6.0,69,0.00,,,0.00,weatherlink.com 1.10,2013-02-24 22:31:00,
2013-02-24 17:46:00,30.7,21.0,30.11,WNW,287,2.0,3.0,68,0.00,,,0.00,weatherlink.com 1.10,2013-02-24 22:46:00,
2013-02-24 18:01:00,30.6,22.0,30.11,NW,311,4.0,5.0,69,0.00,,,0.00,weatherlink.com 1.10,2013-02-24 23:01:00,
2013-02-24 18:16:00,30.5,21.0,30.12,WNW,286,3.0,4.0,69,0.00,,,0.00,weatherlink.com 1.10,2013-02-24 23:16:00,
2013-02-24 18:31:00,30.5,21.0,30.12,WNW,287,2.0,3.0,69,0.00,,,0.00,weatherlink.com 1.10,2013-02-24 23:31:00,
2013-02-24 18:46:00,30.5,21.0,30.13,West,273,0.0,3.0,69,0.00,,,0.00,weatherlink.com 1.10,2013-02-24 23:46:00,
2013-02-24 19:01:00,30.5,21.0,30.13,West,275,0.0,5.0,69,0.00,,,0.00,weatherlink.com 1.10,2013-02-25 00:01:00,
2013-02-24 19:16:00,30.6,22.0,30.14,West,277,2.0,3.0,70,0.00,,,0.00,weatherlink.com 1.10,2013-02-25 00:16:00,
2013-02-24 19:31:00,30.6,22.0,30.15,WSW,251,1.0,2.0,70,0.00,,,0.00,weatherlink.com 1.10,2013-02-25 00:31:00,
2013-02-24 19:46:00,30.3,23.0,30.16,WNW,292,1.0,5.0,73,0.00,,,0.00,weatherlink.com 1.10,2013-02-25 00:46:00,
2013-02-24 20:01:00,30.1,23.0,30.16,West,275,0.0,2.0,75,0.00,,,0.00,weatherlink.com 1.10,2013-02-25 01:01:00,
2013-02-24 20:16:00,29.9,23.0,30.16,WNW,296,0.0,2.0,76,0.00,,,0.00,weatherlink.com 1.10,2013-02-25 01:16:00,
2013-02-24 20:31:00,29.7,24.0,30.16,WNW,296,0.0,1.0,78,0.00,,,0.00,weatherlink.com 1.10,2013-02-25 01:31:00,
2013-02-24 20:46:00,29.5,24.0,30.16,WNW,296,0.0,1.0,80,0.00,,,0.00,weatherlink.com 1.10,2013-02-25 01:46:00,
2013-02-24 21:01:00,29.3,24.0,30.16,WNW,296,0.0,0.0,82,0.00,,,0.00,weatherlink.com 1.10,2013-02-25 02:01:00,
2013-02-24 21:16:00,29.1,25.0,30.17,WNW,296,0.0,0.0,83,0.00,,,0.00,weatherlink.com 1.10,2013-02-25 02:16:00,
2013-02-24 21:31:00,29.0,25.0,30.17,WNW,296,0.0,0.0,84,0.00,,,0.00,weatherlink.com 1.10,2013-02-25 02:31:00,
2013-02-24 21:46:00,28.8,25.0,30.17,WNW,296,0.0,0.0,85,0.00,,,0.00,weatherlink.com 1.10,2013-02-25 02:46:00,
2013-02-24 22:01:00,28.7,25.0,30.17,WNW,296,0.0,0.0,85,0.00,,,0.00,weatherlink.com 1.10,2013-02-25 03:01:00,
2013-02-24 22:16:00,28.6,25.0,30.17,WNW,296,0.0,0.0,86,0.00,,,0.00,weatherlink.com 1.10,2013-02-25 03:16:00,
2013-02-24 22:31:00,28.2,24.0,30.16,WNW,296,0.0,0.0,85,0.00,,,0.00,weatherlink.com 1.10,2013-02-25 03:31:00,
2013-02-24 23:01:00,26.5,23.0,30.16,WNW,296,0.0,0.0,86,0.00,,,0.00,weatherlink.com 1.10,2013-02-25 04:01:00,
2013-02-24 23:16:00,25.6,23.0,30.16,WNW,296,0.0,0.0,88,0.00,,,0.00,weatherlink.com 1.10,2013-02-25 04:16:00,
2013-02-24 23:31:00,25.1,23.0,30.17,WNW,296,0.0,0.0,90,0.00,,,0.00,weatherlink.com 1.10,2013-02-25 04:31:00,
2013-02-24 23:46:00,25.1,23.0,30.17,WNW,296,0.0,0.0,90,0.00,,,0.00,weatherlink.com 1.10,2013-02-25 04:46:00,